Weather History for Washington, PA

Change the Weather History Date:

Tuesday, January 21, 2014

  Actual Average Record
Temperature  
Mean Temperature 12 °F -  
Max Temperature 24 °F 32 °F 53 °F (2006)
Min Temperature 1 °F 18 °F 1 °F (2003)
Degree Days  
Heating Degree Days 52    
Moisture  
Dew Point 8 °F    
Average Humidity 74    
Maximum Humidity 93    
Minimum Humidity 53    
Precipitation  
Precipitation 0.00 in - - ()
Sea Level Pressure  
Sea Level Pressure 29.90 in    
Wind  
Wind Speed 8 mph (North)    
Max Wind Speed 15 mph    
Max Gust Speed 25 mph    
Visibility 6 miles    
Events      
Averages and records for this station are not official NWS values.
T = Trace of Precipitation, MM = Missing Value Source: NWS Daily Summary

Daily Weather History Graph

Daily Weather History Graph

Search for Another Location

Airport:

Trip Planner

Search our weather history database for the weather conditions in past years. The results will help you decide how hot, cold, wet, or windy it might be!

Date:

Astronomy

Jan. 21, 2014 Rise Set
Actual Time 7:38 AM EST 5:26 PM EST
Civil Twilight 7:09 AM EST 5:56 PM EST
Nautical Twilight 6:35 AM EST 6:29 PM EST
Astronomical Twilight 6:03 AM EST 7:01 PM EST
Moon 10:58 PM EST (1/21) 10:07 AM EST (1/21)
Length of Visible Light 10h 47m
Length of Day
9h 48m
Waning Gibbous, 75% of the Moon is Illuminated
Jan 21
Waning Gibbous
Jan 24
Last Quarter
Jan 30
New
Feb 6
First Quarter
Feb 14
Full

Hourly Weather History & Observations

Time (EST) Temp. Windchill Dew Point Humidity Pressure Visibility Wind Dir Wind Speed Gust Speed Precip Events Conditions
12:15 AM 24.8 °F 16.9 °F 19.4 °F 80% 29.89 in 10.0 mi NNE 6.9 mph - N/A   Overcast
12:35 AM 24.8 °F 19.1 °F 17.6 °F 74% 29.88 in 10.0 mi North 4.6 mph - N/A   Overcast
12:55 AM 24.8 °F 17.9 °F 17.6 °F 74% 29.88 in 10.0 mi NNE 5.8 mph - N/A   Overcast
1:15 AM 24.8 °F 17.9 °F 17.6 °F 74% 29.88 in 10.0 mi NNE 5.8 mph - N/A   Overcast
1:35 AM 24.8 °F 16.9 °F 17.6 °F 74% 29.87 in 10.0 mi NE 6.9 mph - N/A   Overcast
1:55 AM 24.8 °F 17.9 °F 17.6 °F 74% 29.87 in 10.0 mi NE 5.8 mph - N/A   Overcast
2:15 AM 24.8 °F 17.9 °F 17.6 °F 74% 29.87 in 10.0 mi NNE 5.8 mph - N/A   Overcast
2:35 AM 23.0 °F 15.8 °F 17.6 °F 80% 29.87 in 10.0 mi NE 5.8 mph - N/A   Overcast
2:55 AM 23.0 °F 14.7 °F 17.6 °F 80% 29.86 in 10.0 mi NE 6.9 mph - N/A   Overcast
3:15 AM 23.0 °F 13.9 °F 17.6 °F 80% 29.85 in 10.0 mi NNE 8.1 mph - N/A   Overcast
3:35 AM 21.2 °F 11.7 °F 15.8 °F 80% 29.85 in 10.0 mi NNE 8.1 mph - N/A   Overcast
3:55 AM 21.2 °F 12.6 °F 15.8 °F 80% 29.84 in 10.0 mi NNE 6.9 mph - N/A   Overcast
4:15 AM 21.2 °F 12.6 °F 15.8 °F 80% 29.83 in 4.0 mi NNE 6.9 mph - N/A   Overcast
4:35 AM 21.2 °F 11.7 °F 15.8 °F 80% 29.82 in 4.0 mi NNE 8.1 mph - N/A   Overcast
4:55 AM 21.2 °F 12.6 °F 15.8 °F 80% 29.82 in 4.0 mi NNE 6.9 mph - N/A   Overcast
5:15 AM 21.2 °F 11.7 °F 17.6 °F 86% 29.81 in 4.0 mi NNE 8.1 mph - N/A   Overcast
5:35 AM 19.4 °F 8.6 °F 17.6 °F 93% 29.81 in 3.0 mi NNE 9.2 mph - N/A   Overcast
5:55 AM 19.4 °F 11.5 °F 17.6 °F 93% 29.81 in 1.5 mi NNE 5.8 mph - N/A   Overcast
6:15 AM 19.4 °F 10.4 °F 17.6 °F 93% 29.82 in 1.8 mi NNE 6.9 mph - N/A   Overcast
6:35 AM 19.4 °F 10.4 °F 15.8 °F 86% 29.83 in 1.8 mi NNE 6.9 mph - N/A   Overcast
6:55 AM 19.4 °F 7.9 °F 15.8 °F 86% 29.83 in 1.8 mi NNE 10.4 mph - N/A   Overcast
7:15 AM 19.4 °F 7.9 °F 15.8 °F 86% 29.83 in 1.8 mi NNE 10.4 mph - N/A   Overcast
7:35 AM 19.4 °F 7.9 °F 15.8 °F 86% 29.84 in 1.8 mi NNE 10.4 mph - N/A   Overcast
7:55 AM 19.4 °F 6.0 °F 15.8 °F 86% 29.84 in 1.8 mi NNE 13.8 mph 17.3 mph N/A   Overcast
8:15 AM 19.4 °F 7.2 °F 15.8 °F 86% 29.84 in 1.5 mi NE 11.5 mph - N/A   Overcast
8:35 AM 19.4 °F 7.2 °F 15.8 °F 86% 29.84 in 1.2 mi NNE 11.5 mph 19.6 mph N/A   Overcast
8:55 AM 17.6 °F 7.3 °F 15.8 °F 93% 29.84 in 1.2 mi NNE 8.1 mph 16.1 mph N/A   Overcast
9:15 AM 17.6 °F 5.0 °F 14.0 °F 86% 29.85 in 1.2 mi NNE 11.5 mph 18.4 mph N/A   Overcast
9:35 AM 17.6 °F 3.7 °F 14.0 °F 86% 29.86 in 1.5 mi NNE 13.8 mph 18.4 mph N/A   Overcast
9:55 AM 17.6 °F 5.7 °F 12.2 °F 79% 29.87 in 1.5 mi NNE 10.4 mph 18.4 mph N/A   Overcast
10:15 AM 17.6 °F 7.3 °F 12.2 °F 79% 29.87 in 1.2 mi North 8.1 mph 17.3 mph N/A   Overcast
10:35 AM 17.6 °F 6.4 °F 12.2 °F 79% 29.88 in 1.5 mi NNE 9.2 mph 17.3 mph N/A   Overcast
10:55 AM 17.6 °F 5.7 °F 10.4 °F 73% 29.88 in 1.0 mi NNE 10.4 mph 25.3 mph N/A   Overcast
11:15 AM 15.8 °F 2.1 °F 12.2 °F 86% 29.88 in 1.0 mi North 12.7 mph 20.7 mph N/A   Overcast
11:35 AM 15.8 °F 2.7 °F 10.4 °F 79% 29.88 in 1.2 mi North 11.5 mph - N/A   Overcast
11:55 AM 15.8 °F 1.4 °F 10.4 °F 79% 29.87 in 1.2 mi NNE 13.8 mph 21.9 mph N/A   Overcast
12:15 PM 15.8 °F 1.4 °F 10.4 °F 79% 29.87 in 1.0 mi North 13.8 mph 17.3 mph N/A   Overcast
12:35 PM 15.8 °F 2.7 °F 10.4 °F 79% 29.86 in 1.5 mi NNE 11.5 mph 21.9 mph N/A   Overcast
12:55 PM 15.8 °F 2.7 °F 8.6 °F 73% 29.86 in 2.5 mi North 11.5 mph 19.6 mph N/A   Overcast
1:15 PM 15.8 °F 5.1 °F 8.6 °F 73% 29.87 in 1.2 mi North 8.1 mph - N/A   Overcast
1:35 PM 15.8 °F 3.4 °F 8.6 °F 73% 29.86 in 1.0 mi North 10.4 mph 18.4 mph N/A   Overcast
1:55 PM 15.8 °F 2.7 °F 8.6 °F 73% 29.86 in 2.5 mi North 11.5 mph 19.6 mph N/A   Overcast
2:15 PM 15.8 °F 1.4 °F 8.6 °F 73% 29.86 in 1.8 mi North 13.8 mph 20.7 mph N/A   Overcast
2:35 PM 15.8 °F 2.1 °F 8.6 °F 73% 29.87 in 1.2 mi NNW 12.7 mph 19.6 mph N/A   Overcast
2:55 PM 15.8 °F 5.1 °F 8.6 °F 73% 29.87 in 3.0 mi North 8.1 mph 16.1 mph N/A   Overcast
3:15 PM 14.0 °F -0.2 °F 6.8 °F 73% 29.87 in 2.5 mi North 12.7 mph 18.4 mph N/A   Overcast
3:35 PM 15.8 °F 0.9 °F 6.8 °F 68% 29.88 in 10.0 mi North 15.0 mph 21.9 mph N/A   Overcast
3:55 PM 15.8 °F 3.4 °F 3.2 °F 58% 29.88 in 10.0 mi North 10.4 mph 16.1 mph N/A   Overcast
4:15 PM 15.8 °F 3.4 °F 1.4 °F 53% 29.90 in 10.0 mi NNW 10.4 mph 18.4 mph N/A   Mostly Cloudy
4:35 PM 14.0 °F -0.2 °F -0.4 °F 53% 29.91 in 10.0 mi North 12.7 mph 20.7 mph N/A   Clear
4:55 PM 12.2 °F -0.2 °F 1.4 °F 62% 29.92 in 10.0 mi North 9.2 mph - N/A   Mostly Cloudy
5:15 PM 12.2 °F 1.7 °F 1.4 °F 62% 29.93 in 10.0 mi North 6.9 mph - N/A   Overcast
5:35 PM 12.2 °F -1.0 °F 1.4 °F 62% 29.93 in 10.0 mi North 10.4 mph - N/A   Overcast
5:55 PM 12.2 °F -2.5 °F -0.4 °F 57% 29.94 in 10.0 mi NNW 12.7 mph 19.6 mph N/A   Overcast
6:15 PM 12.2 °F 0.7 °F -2.2 °F 53% 29.96 in 10.0 mi North 8.1 mph - N/A   Scattered Clouds
6:35 PM 10.4 °F 0.8 °F -2.2 °F 57% 29.97 in 10.0 mi NNW 5.8 mph - N/A   Mostly Cloudy
6:55 PM 10.4 °F -1.5 °F -0.4 °F 62% 29.98 in 10.0 mi NNW 8.1 mph - N/A   Overcast
7:15 PM 10.4 °F -1.5 °F -2.2 °F 57% 29.99 in 10.0 mi NNW 8.1 mph 16.1 mph N/A   Overcast
7:35 PM 10.4 °F -0.4 °F -0.4 °F 62% 30.00 in 10.0 mi NNW 6.9 mph - N/A   Overcast
7:55 PM 8.6 °F -4.7 °F -2.2 °F 62% 30.00 in 10.0 mi NW 9.2 mph 19.6 mph N/A   Overcast
8:15 PM 8.6 °F -6.3 °F -2.2 °F 62% 30.01 in 10.0 mi NNW 11.5 mph 19.6 mph N/A   Overcast
8:35 PM 8.6 °F -2.6 °F -2.2 °F 62% 30.01 in 10.0 mi NNW 6.9 mph - N/A   Overcast
8:55 PM 8.6 °F -7.0 °F -2.2 °F 62% 30.01 in 10.0 mi North 12.7 mph 20.7 mph N/A   Overcast
9:15 PM 6.8 °F -8.6 °F -5.8 °F 56% 30.02 in 10.0 mi North 11.5 mph 18.4 mph N/A   Overcast
9:35 PM 6.8 °F -6.9 °F -4.0 °F 61% 30.02 in 10.0 mi North 9.2 mph 17.3 mph N/A   Overcast
9:55 PM 6.8 °F -2.0 °F -4.0 °F 61% 30.02 in 10.0 mi NNW 4.6 mph - N/A   Overcast
10:15 PM 5.0 °F -8.1 °F -2.2 °F 72% 30.02 in 10.0 mi North 8.1 mph - N/A   Mostly Cloudy
10:35 PM 3.2 °F -9.1 °F -4.0 °F 72% 30.02 in 10.0 mi NW 6.9 mph - N/A   Partly Cloudy
10:55 PM 3.2 °F -9.1 °F -2.2 °F 78% 30.02 in 10.0 mi NW 6.9 mph - N/A   Partly Cloudy
11:15 PM 3.2 °F -6.2 °F -5.8 °F 66% 30.02 in 10.0 mi NW 4.6 mph - N/A   Partly Cloudy
11:35 PM 1.4 °F -6.2 °F -5.8 °F 72% 30.02 in 10.0 mi NNW 3.5 mph - N/A   Clear
11:55 PM 1.4 °F - -5.8 °F 72% 30.02 in 10.0 mi Calm Calm - N/A   Clear